Location: Newark
(41.0400°S, 62.7845°W)
Time: 21:08:50
(UTC+00:00)

Courier 1B Rocket - Pass Details

Date: 06 December 2021
Orbit: 920 x 1202 km, 28.2° (Epoch: 21 January)

Event Time Altitude Azimuth Distance (km) Brightness Sun altitude
Rises 14:03:14 0° 307° (NW) 3,910 8.0 58.9°
Reaches altitude 10° 14:06:24 10° 319° (NW) 2,999 7.6 59.5°
Maximum altitude 14:12:24 27° 13° (NNE) 2,088 7.5 60.4°
Drops below altitude 10° 14:18:37 10° 66° (ENE) 3,124 8.3 61.4°
Sets 14:21:59 0° 77° (ENE) 4,103 8.6 62.0°
